TimeEDT,TemperatureF,Dew PointF,Humidity,Sea Level PressureIn,VisibilityMPH,Wind Direction,Wind SpeedMPH,Gust SpeedMPH,PrecipitationIn,Events,Conditions,WindDirDegrees,DateUTC
12:16 AM,71.6,69.8,94,29.88,4.0,Calm,Calm,-,0.06,Rain,Light Rain,0,2013-07-21 04:16:00
12:27 AM,71.6,69.8,94,29.89,7.0,Calm,Calm,-,0.06,Rain-Thunderstorm,Light Thunderstorms and Rain,0,2013-07-21 04:27:00
12:54 AM,72.0,70.0,93,29.91,6.0,Variable,3.5,-,0.07,Rain-Thunderstorm,Light Thunderstorms and Rain,0,2013-07-21 04:54:00
1:54 AM,73.0,71.1,93,29.88,4.0,Calm,Calm,-,0.10,Rain,Light Rain,0,2013-07-21 05:54:00
2:54 AM,73.0,70.0,90,29.87,6.0,Calm,Calm,-,0.03,,Clear,0,2013-07-21 06:54:00
3:54 AM,73.0,71.1,93,29.88,5.0,SSE,3.5,-,N/A,,Clear,160,2013-07-21 07:54:00
4:54 AM,73.0,70.0,90,29.88,5.0,Calm,Calm,-,N/A,,Clear,0,2013-07-21 08:54:00
5:54 AM,72.0,70.0,93,29.89,3.0,Calm,Calm,-,N/A,,Clear,0,2013-07-21 09:54:00
6:54 AM,73.9,72.0,93,29.89,5.0,Calm,Calm,-,N/A,,Clear,0,2013-07-21 10:54:00
7:54 AM,77.0,73.9,90,29.91,4.0,WSW,4.6,-,N/A,,Clear,240,2013-07-21 11:54:00
8:54 AM,81.0,73.0,77,29.92,9.0,NW,6.9,-,N/A,,Clear,310,2013-07-21 12:54:00
9:54 AM,82.9,72.0,69,29.91,10.0,Calm,Calm,-,N/A,,Clear,0,2013-07-21 13:54:00
10:54 AM,86.0,70.0,59,29.92,10.0,Calm,Calm,-,N/A,,Clear,0,2013-07-21 14:54:00
11:54 AM,87.1,69.1,55,29.92,10.0,Calm,Calm,-,N/A,,Clear,0,2013-07-21 15:54:00
12:54 PM,88.0,70.0,55,29.92,10.0,NNW,5.8,-,N/A,,Scattered Clouds,330,2013-07-21 16:54:00
1:54 PM,89.1,70.0,53,29.92,10.0,Variable,3.5,-,N/A,,Partly Cloudy,0,2013-07-21 17:54:00
2:54 PM,90.0,70.0,52,29.91,10.0,WNW,5.8,-,N/A,,Partly Cloudy,290,2013-07-21 18:54:00
3:54 PM,89.1,66.9,48,29.90,10.0,Calm,Calm,-,N/A,,Clear,0,2013-07-21 19:54:00
4:54 PM,88.0,69.1,53,29.88,10.0,WNW,3.5,-,N/A,,Clear,300,2013-07-21 20:54:00
5:24 PM,84.2,71.6,66,29.90,10.0,South,3.5,-,N/A,Thunderstorm,Clear,190,2013-07-21 21:24:00
5:39 PM,82.4,73.4,74,29.90,9.0,SSW,5.8,-,N/A,,Partly Cloudy,210,2013-07-21 21:39:00
5:54 PM,81.0,75.0,82,29.90,7.0,SW,5.8,-,0.00,Rain,Light Rain,220,2013-07-21 21:54:00
6:54 PM,75.9,72.0,87,29.91,6.0,West,3.5,-,0.01,Rain,Light Rain,260,2013-07-21 22:54:00
7:54 PM,77.0,73.0,88,29.92,6.0,Calm,Calm,-,0.01,,Mostly Cloudy,0,2013-07-21 23:54:00
8:54 PM,77.0,73.0,88,29.94,8.0,East,6.9,-,0.00,Rain,Light Rain,100,2013-07-22 00:54:00
9:54 PM,75.0,71.1,87,29.94,10.0,ESE,3.5,-,0.00,,Mostly Cloudy,110,2013-07-22 01:54:00
10:54 PM,75.0,71.1,87,29.94,9.0,Variable,3.5,-,N/A,,Overcast,0,2013-07-22 02:54:00
11:54 PM,75.9,72.0,87,29.93,9.0,North,3.5,-,N/A,,Partly Cloudy,350,2013-07-22 03:54:00